TimeEDT,TemperatureF,Dew PointF,Humidity,Sea Level PressureIn,VisibilityMPH,Wind Direction,Wind SpeedMPH,Gust SpeedMPH,PrecipitationIn,Events,Conditions,WindDirDegrees,DateUTC
1:53 AM,35.1,28.0,76,30.38,10.0,SE,3.5,-,N/A,,Clear,130,2012-10-13 05:53:00
2:53 AM,36.0,30.0,79,30.37,10.0,South,4.6,-,N/A,,Clear,180,2012-10-13 06:53:00
3:53 AM,35.1,28.9,78,30.36,10.0,SSE,4.6,-,N/A,,Clear,150,2012-10-13 07:53:00
4:53 AM,35.1,28.9,78,30.35,10.0,SSE,3.5,-,N/A,,Clear,150,2012-10-13 08:53:00
5:53 AM,35.1,30.0,82,30.34,10.0,South,3.5,-,N/A,,Clear,180,2012-10-13 09:53:00
6:53 AM,35.1,30.0,82,30.32,10.0,SE,4.6,-,N/A,,Clear,130,2012-10-13 10:53:00
7:53 AM,36.0,30.9,82,30.29,10.0,SSE,4.6,-,N/A,,Clear,160,2012-10-13 11:53:00
8:53 AM,37.9,32.0,79,30.30,10.0,SSW,3.5,-,0.00,Rain,Light Rain,200,2012-10-13 12:53:00
9:53 AM,41.0,33.1,73,30.30,10.0,Calm,Calm,-,0.00,,Mostly Cloudy,0,2012-10-13 13:53:00
10:53 AM,43.0,33.1,68,30.27,10.0,East,6.9,-,0.00,,Overcast,90,2012-10-13 14:53:00
11:53 AM,44.1,35.1,71,30.23,10.0,ESE,6.9,-,N/A,,Overcast,110,2012-10-13 15:53:00
12:53 PM,46.0,36.0,68,30.20,10.0,East,8.1,-,N/A,,Overcast,100,2012-10-13 16:53:00
1:53 PM,48.0,36.0,63,30.16,10.0,ESE,3.5,-,N/A,,Overcast,110,2012-10-13 17:53:00
2:53 PM,51.1,37.9,61,30.10,10.0,ESE,6.9,-,0.00,,Overcast,120,2012-10-13 18:53:00
4:53 PM,50.0,46.9,89,30.02,4.0,SSE,3.5,-,0.08,Rain,Light Rain,150,2012-10-13 20:53:00
5:21 PM,51.8,48.2,88,29.99,8.0,SE,3.5,-,0.01,Rain,Light Rain,140,2012-10-13 21:21:00
5:53 PM,52.0,48.9,89,29.99,8.0,South,5.8,-,0.01,Rain,Light Rain,170,2012-10-13 21:53:00
6:53 PM,57.0,54.0,89,29.96,7.0,SSW,10.4,-,0.01,Rain,Light Rain,210,2012-10-13 22:53:00
7:02 PM,57.2,55.4,94,29.94,8.0,SW,12.7,-,0.00,Rain,Light Rain,220,2012-10-13 23:02:00
8:53 PM,60.1,57.9,93,29.95,7.0,SW,10.4,-,N/A,,Overcast,220,2012-10-14 00:53:00
10:05 PM,60.8,57.2,88,29.92,6.0,SW,12.7,-,N/A,,Mostly Cloudy,230,2012-10-14 02:05:00
10:53 PM,61.0,57.9,90,29.95,7.0,WSW,5.8,-,N/A,,Overcast,250,2012-10-14 02:53:00
11:28 PM,60.8,57.2,88,29.93,7.0,WSW,4.6,-,0.00,,Overcast,250,2012-10-14 03:28:00
11:53 PM,61.0,59.0,93,29.94,7.0,WSW,5.8,-,0.00,,Mostly Cloudy,240,2012-10-14 03:53:00